Location: Lecco
(45.8566°N, 9.3977°E)
Time: 00:15:14
(UTC+02:00)

Courier 1B Rocket - Pass Details

Date: 26 August 2019
Orbit: 920 x 1202 km, 28.2° (Epoch: 20 September)

Event Time Altitude Azimuth Distance (km) Brightness Sun altitude
Rises 04:08:53 0° 230° (SW) 3,842 - -22.6°
Reaches altitude 10° 04:12:29 10° 212° (SSW) 2,942 - -22.2°
Exits shadow 04:16:58 18° 174° (S) 2,436 6.7 -21.6°
Maximum altitude 04:17:10 18° 172° (S) 2,438 6.7 -21.6°
Drops below altitude 10° 04:22:01 10° 132° (SE) 3,063 7.7 -21.0°
Sets 04:25:53 0° 115° (ESE) 4,060 8.5 -20.5°
